Tracking 19817 objects as of 19-Aug-2019
HD Live streaming from Space Station
objects crossing your sky now

FENGYUN 1C DEB

Track FENGYUN 1C DEB now!
10-day predictions


NORAD ID: 36196
Int'l Code: 1999-025DTV
Perigee: 824.0 km
Apogee: 880.7 km
Inclination: 99.0 °
Period: 101.8 minutes
Semi major axis: 7223 km
RCS: 0.0113 m2 (small)
Launch date: May 10, 1999
Source: People's Republic of China (PRC)
Launch site: Taiyaun Space Center, China (TSC)

Note: This is SATELLITE DEBRIS
aabbcc
Your satellite tracking list
Your tracking list is empty




NASA's NSSDC Master Catalog

Two Line Element Set (TLE):
1 36196U 99025DTV 19230.49408840 +.00000526 +00000-0 +29802-3 0  9999
2 36196 099.0232 319.5665 0039299 293.6080 066.0968 14.14146891319295
Source of the keplerian elements: AFSPC